Time,TemperatureF,DewpointF,PressureIn,WindDirection,WindDirectionDegrees,WindSpeedMPH,WindSpeedGustMPH,Humidity,HourlyPrecipIn,Conditions,Clouds,dailyrainin,SoftwareType,DateUTC
2013-02-05 00:04:00,42.3,40.7,30.10,SSE,158,0.2,0.2,94,0.00,,,0.00,WUHU216HW,2013-02-05 08:04:00,
2013-02-05 00:09:00,42.3,40.7,30.10,SSE,158,0.2,0.2,94,0.00,,,0.00,WUHU216HW,2013-02-05 08:09:00,
2013-02-05 00:30:00,42.1,40.5,30.09,SW,225,0.0,0.0,94,0.00,,,0.00,WUHU216HW,2013-02-05 08:30:00,
2013-02-05 00:35:00,42.1,40.5,30.09,SW,225,0.0,0.0,94,0.00,,,0.00,WUHU216HW,2013-02-05 08:35:00,
2013-02-05 00:40:00,42.1,40.5,30.09,SW,225,0.0,0.0,94,0.00,,,0.00,WUHU216HW,2013-02-05 08:40:00,
2013-02-05 00:59:00,41.2,39.6,30.09,WSW,248,0.0,0.0,94,0.00,,,0.00,WUHU216HW,2013-02-05 08:59:00,
2013-02-05 01:04:00,41.2,39.6,30.09,WSW,248,0.0,0.0,94,0.00,,,0.00,WUHU216HW,2013-02-05 09:04:00,
2013-02-05 01:09:00,41.2,39.6,30.09,WSW,248,0.0,0.0,94,0.00,,,0.00,WUHU216HW,2013-02-05 09:09:00,
2013-02-05 01:30:00,40.7,39.1,30.09,ESE,113,0.0,0.0,94,0.00,,,0.00,WUHU216HW,2013-02-05 09:30:00,
2013-02-05 01:35:00,40.7,39.1,30.09,ESE,113,0.0,0.0,94,0.00,,,0.00,WUHU216HW,2013-02-05 09:35:00,
2013-02-05 01:40:00,40.7,39.1,30.09,ESE,113,0.0,0.0,94,0.00,,,0.00,WUHU216HW,2013-02-05 09:40:00,
2013-02-05 10:30:00,50.8,46.6,30.07,ESE,113,1.1,1.1,86,0.00,,,0.00,WUHU216HW,2013-02-05 18:30:00,
2013-02-05 10:35:00,50.8,47.3,30.07,NW,315,0.0,2.9,88,0.00,,,0.07,WUHU216HW,2013-02-05 18:35:00,
2013-02-05 10:40:00,50.8,47.3,30.07,North,0,0.0,2.9,88,0.00,,,0.07,WUHU216HW,2013-02-05 18:40:00,
2013-02-05 10:45:00,50.8,47.3,30.07,North,0,0.0,0.2,88,0.00,,,0.07,WUHU216HW,2013-02-05 18:45:00,
2013-02-05 10:59:00,57.4,49.1,30.07,East,90,0.7,0.7,74,0.00,,,0.07,WUHU216HW,2013-02-05 18:59:00,
2013-02-05 11:05:00,57.4,49.9,30.07,East,90,0.0,0.7,76,0.00,,,0.07,WUHU216HW,2013-02-05 19:05:00,
2013-02-05 11:10:00,57.4,49.9,30.07,East,90,0.0,0.7,76,0.00,,,0.07,WUHU216HW,2013-02-05 19:10:00,
2013-02-05 11:30:00,55.1,46.9,30.07,ESE,113,1.1,1.1,74,0.00,,,0.07,WUHU216HW,2013-02-05 19:30:00,
2013-02-05 11:35:00,55.1,47.3,30.07,WNW,293,0.7,1.1,75,0.00,,,0.07,WUHU216HW,2013-02-05 19:35:00,
2013-02-05 11:40:00,55.1,47.3,30.07,WNW,293,0.7,1.1,75,0.00,,,0.07,WUHU216HW,2013-02-05 19:40:00,
2013-02-05 11:59:00,53.5,46.8,30.07,ESE,113,0.7,0.7,78,0.00,,,0.07,WUHU216HW,2013-02-05 19:59:00,
2013-02-05 12:04:00,53.5,46.4,30.07,ESE,113,0.7,0.7,77,0.00,,,0.07,WUHU216HW,2013-02-05 20:04:00,
2013-02-05 12:09:00,53.5,46.4,30.07,ESE,113,0.7,0.7,77,0.00,,,0.07,WUHU216HW,2013-02-05 20:09:00,
2013-02-05 12:30:00,52.7,46.1,30.07,West,270,0.9,0.9,78,0.00,,,0.07,WUHU216HW,2013-02-05 20:30:00,
2013-02-05 12:35:00,52.7,46.1,30.07,West,270,0.9,0.9,78,0.00,,,0.07,WUHU216HW,2013-02-05 20:35:00,
2013-02-05 12:40:00,52.7,46.1,30.07,West,270,0.9,0.9,78,0.00,,,0.07,WUHU216HW,2013-02-05 20:40:00,
2013-02-05 12:59:00,54.0,46.3,30.06,WSW,248,1.1,1.1,75,0.00,,,0.07,WUHU216HW,2013-02-05 20:59:00,
2013-02-05 13:04:00,54.0,46.3,30.06,SW,225,0.0,1.1,75,0.00,,,0.07,WUHU216HW,2013-02-05 21:04:00,
2013-02-05 13:09:00,54.0,46.3,30.06,SW,225,0.0,0.0,75,0.00,,,0.07,WUHU216HW,2013-02-05 21:09:00,
2013-02-05 13:30:00,55.3,46.7,30.05,SE,135,0.4,0.4,73,0.00,,,0.07,WUHU216HW,2013-02-05 21:30:00,
2013-02-05 13:35:00,55.3,46.5,30.05,SW,225,0.9,0.9,72,0.00,,,0.07,WUHU216HW,2013-02-05 21:35:00,
2013-02-05 13:40:00,55.3,46.5,30.05,SW,225,0.9,0.9,72,0.00,,,0.07,WUHU216HW,2013-02-05 21:40:00,
2013-02-05 13:59:00,55.6,45.6,30.04,SE,135,2.2,2.2,69,0.00,,,0.07,WUHU216HW,2013-02-05 21:59:00,
2013-02-05 14:04:00,55.6,44.4,30.04,ESE,113,0.7,2.5,66,0.00,,,0.07,WUHU216HW,2013-02-05 22:04:00,
2013-02-05 14:09:00,55.6,44.4,30.04,ESE,113,0.7,2.5,66,0.00,,,0.07,WUHU216HW,2013-02-05 22:09:00,
2013-02-05 14:30:00,54.9,43.3,30.04,WSW,248,0.4,0.4,65,0.00,,,0.07,WUHU216HW,2013-02-05 22:30:00,
2013-02-05 14:35:00,55.1,43.5,30.04,NE,45,0.2,0.4,65,0.00,,,0.07,WUHU216HW,2013-02-05 22:35:00,
2013-02-05 14:40:00,55.1,43.5,30.04,NE,45,0.2,0.4,65,0.00,,,0.07,WUHU216HW,2013-02-05 22:40:00,
2013-02-05 15:00:00,55.3,43.3,30.04,SE,135,0.9,0.9,64,0.00,,,0.07,WUHU216HW,2013-02-05 23:00:00,
2013-02-05 15:05:00,55.3,43.7,30.04,SE,135,0.4,0.9,65,0.00,,,0.07,WUHU216HW,2013-02-05 23:05:00,
2013-02-05 15:10:00,55.3,43.7,30.04,SE,135,0.4,0.9,65,0.00,,,0.07,WUHU216HW,2013-02-05 23:10:00,
2013-02-05 15:30:00,54.0,43.3,30.04,WSW,248,0.0,0.0,67,0.00,,,0.07,WUHU216HW,2013-02-05 23:30:00,
2013-02-05 15:35:00,54.0,43.3,30.04,NNW,338,1.1,1.1,67,0.00,,,0.07,WUHU216HW,2013-02-05 23:35:00,
2013-02-05 15:40:00,54.0,43.3,30.04,NNW,338,1.1,1.1,67,0.00,,,0.07,WUHU216HW,2013-02-05 23:40:00,
2013-02-05 15:59:00,50.2,43.6,30.06,NNW,338,0.2,0.2,78,0.03,,,0.07,WUHU216HW,2013-02-05 23:59:00,
2013-02-05 16:04:00,50.2,43.6,30.06,NW,315,0.4,0.4,78,0.03,,,0.10,WUHU216HW,2013-02-06 00:04:00,
2013-02-05 16:09:00,50.2,43.6,30.06,NW,315,0.4,0.4,78,0.03,,,0.10,WUHU216HW,2013-02-06 00:09:00,
2013-02-05 16:30:00,48.2,43.6,30.07,SSW,203,0.0,0.0,84,0.06,,,0.10,WUHU216HW,2013-02-06 00:30:00,
2013-02-05 16:35:00,48.1,43.5,30.07,WNW,293,0.0,0.0,84,0.06,,,0.13,WUHU216HW,2013-02-06 00:35:00,
2013-02-05 16:40:00,48.1,43.5,30.07,WNW,293,0.0,0.0,84,0.06,,,0.13,WUHU216HW,2013-02-06 00:40:00,
2013-02-05 16:59:00,47.3,43.0,30.07,North,0,0.4,0.4,85,0.03,,,0.13,WUHU216HW,2013-02-06 00:59:00,
2013-02-05 17:04:00,47.3,43.0,30.07,North,0,0.0,0.4,85,0.03,,,0.13,WUHU216HW,2013-02-06 01:04:00,
2013-02-05 17:09:00,47.3,43.0,30.07,North,0,0.0,0.4,85,0.03,,,0.13,WUHU216HW,2013-02-06 01:09:00,
2013-02-05 17:30:00,45.7,42.4,30.08,ESE,113,0.2,0.2,88,0.03,,,0.13,WUHU216HW,2013-02-06 01:30:00,
2013-02-05 17:35:00,45.7,42.4,30.08,ESE,113,0.0,0.2,88,0.03,,,0.17,WUHU216HW,2013-02-06 01:35:00,
2013-02-05 17:40:00,45.7,42.4,30.08,ESE,113,0.0,0.2,88,0.03,,,0.17,WUHU216HW,2013-02-06 01:40:00,
2013-02-05 17:59:00,45.0,42.3,30.08,NE,45,0.2,0.2,90,0.05,,,0.17,WUHU216HW,2013-02-06 01:59:00,
2013-02-05 18:04:00,45.0,42.3,30.08,NE,45,0.2,0.2,90,0.04,,,0.19,WUHU216HW,2013-02-06 02:04:00,
2013-02-05 18:09:00,45.0,42.3,30.08,NE,45,0.2,0.2,90,0.04,,,0.19,WUHU216HW,2013-02-06 02:09:00,
2013-02-05 18:30:00,44.5,41.5,30.09,ENE,68,0.2,0.2,89,0.08,,,0.19,WUHU216HW,2013-02-06 02:30:00,
2013-02-05 18:35:00,44.5,41.5,30.09,ENE,68,0.0,0.2,89,0.08,,,0.25,WUHU216HW,2013-02-06 02:35:00,
2013-02-05 18:40:00,44.5,41.5,30.09,ENE,68,0.0,0.0,89,0.08,,,0.25,WUHU216HW,2013-02-06 02:40:00,
2013-02-05 19:00:00,43.9,41.2,30.10,ESE,113,0.0,0.0,90,0.08,,,0.25,WUHU216HW,2013-02-06 03:00:00,
2013-02-05 19:05:00,43.7,41.0,30.10,ESE,113,0.0,0.0,90,0.07,,,0.27,WUHU216HW,2013-02-06 03:05:00,
2013-02-05 19:10:00,43.7,41.0,30.10,ESE,113,0.0,0.0,90,0.07,,,0.27,WUHU216HW,2013-02-06 03:10:00,
2013-02-05 19:30:00,42.8,40.4,30.11,ENE,68,0.0,0.0,91,0.02,,,0.27,WUHU216HW,2013-02-06 03:30:00,
2013-02-05 19:35:00,42.8,40.4,30.11,ENE,68,0.0,0.0,91,0.02,,,0.27,WUHU216HW,2013-02-06 03:35:00,
2013-02-05 19:40:00,42.8,40.4,30.11,ENE,68,0.0,0.0,91,0.02,,,0.27,WUHU216HW,2013-02-06 03:40:00,
2013-02-05 19:59:00,43.2,41.0,30.12,ESE,113,0.0,0.0,92,0.02,,,0.27,WUHU216HW,2013-02-06 03:59:00,
2013-02-05 20:04:00,43.2,41.0,30.12,ESE,113,0.4,0.4,92,0.02,,,0.29,WUHU216HW,2013-02-06 04:04:00,
2013-02-05 20:09:00,43.2,41.0,30.12,ESE,113,0.4,0.4,92,0.02,,,0.29,WUHU216HW,2013-02-06 04:09:00,
2013-02-05 20:30:00,43.6,41.7,30.13,ENE,68,0.4,0.4,93,0.07,,,0.29,WUHU216HW,2013-02-06 04:30:00,
2013-02-05 20:35:00,43.6,41.7,30.13,ENE,68,0.4,0.4,93,0.07,,,0.34,WUHU216HW,2013-02-06 04:35:00,
2013-02-05 20:40:00,43.6,41.7,30.13,ENE,68,0.4,0.4,93,0.07,,,0.34,WUHU216HW,2013-02-06 04:40:00,
2013-02-05 21:00:00,43.0,41.1,30.13,ENE,68,0.0,0.0,93,0.07,,,0.34,WUHU216HW,2013-02-06 05:00:00,
2013-02-05 21:30:00,42.7,40.8,30.14,ENE,68,0.7,0.7,93,0.04,,,0.36,WUHU216HW,2013-02-06 05:30:00,
2013-02-05 21:35:00,42.7,40.8,30.14,ENE,68,0.9,0.9,93,0.04,,,0.38,WUHU216HW,2013-02-06 05:35:00,
2013-02-05 21:40:00,42.7,40.8,30.14,ENE,68,0.9,0.9,93,0.04,,,0.38,WUHU216HW,2013-02-06 05:40:00,
2013-02-05 22:00:00,43.0,41.1,30.15,ESE,113,0.0,0.0,93,0.04,,,0.38,WUHU216HW,2013-02-06 06:00:00,
2013-02-05 22:05:00,43.0,41.1,30.15,ESE,113,0.0,0.0,93,0.04,,,0.40,WUHU216HW,2013-02-06 06:05:00,
2013-02-05 22:10:00,43.0,41.1,30.15,ESE,113,0.0,0.0,93,0.04,,,0.40,WUHU216HW,2013-02-06 06:10:00,
2013-02-05 22:30:00,43.0,41.4,30.15,ESE,113,0.7,0.7,94,0.05,,,0.40,WUHU216HW,2013-02-06 06:30:00,
2013-02-05 22:35:00,43.0,41.4,30.15,ESE,113,0.4,0.7,94,0.05,,,0.43,WUHU216HW,2013-02-06 06:35:00,
2013-02-05 22:40:00,43.0,41.4,30.15,ESE,113,0.4,0.7,94,0.05,,,0.43,WUHU216HW,2013-02-06 06:40:00,
2013-02-05 23:00:00,43.0,41.4,30.16,ENE,68,0.2,0.2,94,0.04,,,0.43,WUHU216HW,2013-02-06 07:00:00,
2013-02-05 23:05:00,43.0,41.4,30.16,ENE,68,0.4,0.4,94,0.04,,,0.44,WUHU216HW,2013-02-06 07:05:00,
2013-02-05 23:10:00,43.0,41.4,30.16,ENE,68,0.4,0.4,94,0.04,,,0.44,WUHU216HW,2013-02-06 07:10:00,
2013-02-05 23:30:00,42.5,40.9,30.17,ENE,68,0.2,0.2,94,0.01,,,0.44,WUHU216HW,2013-02-06 07:30:00,
2013-02-05 23:35:00,42.5,40.9,30.17,ENE,68,0.2,0.2,94,0.01,,,0.44,WUHU216HW,2013-02-06 07:35:00,
2013-02-05 23:40:00,42.5,40.9,30.17,ENE,68,0.2,0.2,94,0.01,,,0.44,WUHU216HW,2013-02-06 07:40:00,
2013-02-05 23:59:00,42.1,40.5,30.17,ENE,68,0.2,0.2,94,0.00,,,0.00,WUHU216HW,2013-02-06 07:59:00,